User: anonymous   Login
Location: Chevoux
(46.3801°N, 4.9476°E)
Time: 11:20:32
(UTC+00:00)
Language:

DMSP B5D1-3 - Orbit

View from above orbital plane
View from above orbital plane
View from above satellite
View from above satellite

Ground track
Ground track

The orbit data is extracted from the following two-line orbital elements,

1 10820U 78042A   21101.17149610  .00000090  00000-0  46524-4 0  9990
2 10820  98.5303 297.3494 0008690 219.6142 140.4409 14.35377761241303
Epoch (UTC): 11 April 2021 04:06:57
Eccentricity: 0.0008690
inclination: 98.5303°
perigee height: 767 km
apogee height: 780 km
right ascension of ascending node: 297.3494°
argument of perigee: 219.6142°
revolutions per day: 14.35377761
mean anomaly at epoch: 140.4409°
orbit number at epoch: 24130

The dashed part of the orbit path shows where the satellite is in the earth's shadow,  

DLR